Time,TemperatureF,DewpointF,PressureIn,WindDirection,WindDirectionDegrees,WindSpeedMPH,WindSpeedGustMPH,Humidity,HourlyPrecipIn,Conditions,Clouds,dailyrainin,SoftwareType,DateUTC
2013-12-29 00:00:00,71.1,41.3,29.71,North,0,0.0,0.0,34,0.00,,,-99.99,VWS V12.07,2013-12-29 05:00:00,
2013-12-29 00:10:00,71.1,41.3,29.71,North,0,0.0,0.0,34,0.00,,,-99.99,VWS V12.07,2013-12-29 05:10:00,
2013-12-29 00:20:00,71.1,41.3,29.71,North,0,0.0,0.0,34,0.00,,,-99.99,VWS V12.07,2013-12-29 05:20:00,
2013-12-29 00:30:00,70.9,41.9,29.71,North,0,0.0,0.0,35,0.00,,,-99.99,VWS V12.07,2013-12-29 05:30:00,
2013-12-29 00:40:00,70.9,41.9,29.71,North,0,0.0,0.0,35,0.00,,,-99.99,VWS V12.07,2013-12-29 05:40:00,
2013-12-29 00:50:00,70.9,41.9,29.71,North,0,0.0,0.0,35,0.00,,,-99.99,VWS V12.07,2013-12-29 05:50:00,
2013-12-29 01:00:00,70.9,41.9,29.71,North,0,0.0,0.0,35,0.00,,,-99.99,VWS V12.07,2013-12-29 06:00:00,
2013-12-29 01:10:00,70.9,41.9,29.71,North,0,0.0,0.0,35,0.00,,,-99.99,VWS V12.07,2013-12-29 06:10:00,
2013-12-29 01:20:00,70.9,41.9,29.71,North,0,0.0,0.0,35,0.00,,,-99.99,VWS V12.07,2013-12-29 06:20:00,
2013-12-29 01:30:00,70.9,41.9,29.68,North,0,0.0,0.0,35,0.00,,,-99.99,VWS V12.07,2013-12-29 06:30:00,
2013-12-29 01:40:00,70.9,42.6,29.68,North,0,0.0,0.0,36,0.00,,,-99.99,VWS V12.07,2013-12-29 06:40:00,
2013-12-29 01:50:00,70.7,42.5,29.68,North,0,0.0,0.0,36,0.00,,,-99.99,VWS V12.07,2013-12-29 06:50:00,
2013-12-29 02:00:00,70.7,42.5,29.68,North,0,0.0,0.0,36,0.00,,,-99.99,VWS V12.07,2013-12-29 07:00:00,
2013-12-29 02:10:00,70.5,42.3,29.68,North,0,0.0,0.0,36,0.00,,,-99.99,VWS V12.07,2013-12-29 07:10:00,
2013-12-29 02:20:00,70.7,42.5,29.68,North,0,0.0,0.0,36,0.00,,,-99.99,VWS V12.07,2013-12-29 07:20:00,
2013-12-29 02:30:00,70.7,43.2,29.68,North,0,0.0,0.0,37,0.00,,,-99.99,VWS V12.07,2013-12-29 07:30:00,
2013-12-29 02:40:00,70.7,43.2,29.65,North,0,0.0,0.0,37,0.00,,,-99.99,VWS V12.07,2013-12-29 07:40:00,
2013-12-29 02:50:00,70.7,43.2,29.65,North,0,0.0,0.0,37,0.00,,,-99.99,VWS V12.07,2013-12-29 07:50:00,
2013-12-29 03:00:00,70.7,43.9,29.65,North,0,0.0,0.0,38,0.00,,,-99.99,VWS V12.07,2013-12-29 08:00:00,
2013-12-29 03:10:00,70.7,43.9,29.65,North,0,0.0,0.0,38,0.00,,,-99.99,VWS V12.07,2013-12-29 08:10:00,
2013-12-29 03:20:00,70.7,43.9,29.65,North,0,0.0,0.0,38,0.00,,,-99.99,VWS V12.07,2013-12-29 08:20:00,
2013-12-29 03:30:00,70.9,44.7,29.65,North,0,0.0,0.0,39,0.00,,,-99.99,VWS V12.07,2013-12-29 08:30:00,
2013-12-29 03:40:00,70.7,44.5,29.65,North,0,0.0,0.0,39,0.00,,,-99.99,VWS V12.07,2013-12-29 08:40:00,
2013-12-29 03:50:00,70.7,44.5,29.62,North,0,0.0,0.0,39,0.00,,,-99.99,VWS V12.07,2013-12-29 08:50:00,
2013-12-29 04:00:00,70.7,44.5,29.62,North,0,0.0,0.0,39,0.00,,,-99.99,VWS V12.07,2013-12-29 09:00:00,
2013-12-29 04:10:00,70.9,44.7,29.62,North,0,0.0,0.0,39,0.00,,,-99.99,VWS V12.07,2013-12-29 09:10:00,
2013-12-29 04:20:00,70.9,44.7,29.62,North,0,0.0,0.0,39,0.00,,,-99.99,VWS V12.07,2013-12-29 09:20:00,
2013-12-29 04:30:00,70.9,45.4,29.62,North,0,0.0,0.0,40,0.00,,,-99.99,VWS V12.07,2013-12-29 09:30:00,
2013-12-29 04:40:00,70.9,44.7,29.62,North,0,0.0,0.0,39,0.00,,,-99.99,VWS V12.07,2013-12-29 09:40:00,
2013-12-29 04:50:00,70.9,45.4,29.62,North,0,0.0,0.0,40,0.00,,,-99.99,VWS V12.07,2013-12-29 09:50:00,
2013-12-29 05:00:00,70.9,45.4,29.62,North,0,0.0,0.0,40,0.00,,,-99.99,VWS V12.07,2013-12-29 10:00:00,
2013-12-29 05:10:00,70.9,45.4,29.62,North,0,0.0,0.0,40,0.00,,,-99.99,VWS V12.07,2013-12-29 10:10:00,
2013-12-29 05:20:00,71.2,45.7,29.62,North,0,0.0,0.0,40,0.00,,,-99.99,VWS V12.07,2013-12-29 10:20:00,
2013-12-29 05:30:00,71.2,45.7,29.65,North,0,0.0,0.0,40,0.00,,,-99.99,VWS V12.07,2013-12-29 10:30:00,
2013-12-29 05:40:00,71.4,45.9,29.65,North,0,0.0,0.0,40,0.00,,,-99.99,VWS V12.07,2013-12-29 10:40:00,
2013-12-29 05:50:00,71.4,45.9,29.65,North,0,0.0,0.0,40,0.00,,,-99.99,VWS V12.07,2013-12-29 10:50:00,
2013-12-29 06:00:00,71.4,45.9,29.68,North,0,0.0,0.0,40,0.00,,,-99.99,VWS V12.07,2013-12-29 11:00:00,
2013-12-29 06:10:00,71.4,46.5,29.68,North,0,0.0,0.0,41,0.00,,,-99.99,VWS V12.07,2013-12-29 11:10:00,
2013-12-29 06:20:00,71.4,46.5,29.65,North,0,0.0,0.0,41,0.00,,,-99.99,VWS V12.07,2013-12-29 11:20:00,
2013-12-29 06:30:00,71.6,47.3,29.65,North,0,0.0,0.0,42,0.00,,,-99.99,VWS V12.07,2013-12-29 11:30:00,
2013-12-29 06:40:00,71.6,47.3,29.65,North,0,0.0,0.0,42,0.00,,,-99.99,VWS V12.07,2013-12-29 11:40:00,
2013-12-29 06:50:00,71.6,47.3,29.65,North,0,0.0,0.0,42,0.00,,,-99.99,VWS V12.07,2013-12-29 11:50:00,
2013-12-29 07:00:00,71.6,47.9,29.65,North,0,0.0,0.0,43,0.00,,,-99.99,VWS V12.07,2013-12-29 12:00:00,
2013-12-29 07:10:00,71.6,47.9,29.65,North,0,0.0,0.0,43,0.00,,,-99.99,VWS V12.07,2013-12-29 12:10:00,
2013-12-29 07:20:00,71.6,48.6,29.65,North,0,0.0,0.0,44,0.00,,,-99.99,VWS V12.07,2013-12-29 12:20:00,
2013-12-29 07:30:00,71.8,49.3,29.65,North,0,0.0,0.0,45,0.00,,,-99.99,VWS V12.07,2013-12-29 12:30:00,
2013-12-29 07:40:00,72.0,50.1,29.65,North,0,0.0,0.0,46,0.00,,,-99.99,VWS V12.07,2013-12-29 12:40:00,
2013-12-29 07:50:00,72.0,50.1,29.65,North,0,0.0,0.0,46,0.00,,,-99.99,VWS V12.07,2013-12-29 12:50:00,
2013-12-29 08:00:00,72.1,50.8,29.65,North,0,0.0,0.0,47,0.00,,,-99.99,VWS V12.07,2013-12-29 13:00:00,
2013-12-29 08:10:00,72.1,50.2,29.65,North,0,0.0,0.0,46,0.00,,,-99.99,VWS V12.07,2013-12-29 13:10:00,
2013-12-29 08:20:00,72.1,50.2,29.65,North,0,0.0,0.0,46,0.00,,,-99.99,VWS V12.07,2013-12-29 13:20:00,
2013-12-29 08:30:00,72.1,50.8,29.68,North,0,0.0,0.0,47,0.00,,,-99.99,VWS V12.07,2013-12-29 13:30:00,
2013-12-29 08:40:00,72.3,51.5,29.68,North,0,0.0,0.0,48,0.00,,,-99.99,VWS V12.07,2013-12-29 13:40:00,
2013-12-29 08:50:00,72.3,51.0,29.68,North,0,0.0,0.0,47,0.00,,,-99.99,VWS V12.07,2013-12-29 13:50:00,
2013-12-29 09:00:00,72.3,49.8,29.68,North,0,0.0,0.0,45,0.00,,,-99.99,VWS V12.07,2013-12-29 14:00:00,
2013-12-29 09:10:00,72.3,48.6,29.65,North,0,0.0,0.0,43,0.00,,,-99.99,VWS V12.07,2013-12-29 14:10:00,
2013-12-29 09:20:00,72.1,47.8,29.65,North,0,0.0,0.0,42,0.00,,,-99.99,VWS V12.07,2013-12-29 14:20:00,
2013-12-29 09:30:00,72.3,48.0,29.68,North,0,0.0,0.0,42,0.00,,,-99.99,VWS V12.07,2013-12-29 14:30:00,
2013-12-29 09:40:00,72.7,47.7,29.68,North,0,0.0,0.0,41,0.00,,,-99.99,VWS V12.07,2013-12-29 14:40:00,
2013-12-29 09:50:00,72.9,47.2,29.68,North,0,0.0,0.0,40,0.00,,,-99.99,VWS V12.07,2013-12-29 14:50:00,
2013-12-29 10:00:00,72.9,47.2,29.71,North,0,0.0,0.0,40,0.00,,,-99.99,VWS V12.07,2013-12-29 15:00:00,
2013-12-29 10:10:00,72.9,45.8,29.71,North,0,0.0,0.0,38,0.00,,,-99.99,VWS V12.07,2013-12-29 15:10:00,
2013-12-29 10:20:00,72.9,45.8,29.71,North,0,0.0,0.0,38,0.00,,,-99.99,VWS V12.07,2013-12-29 15:20:00,
2013-12-29 10:30:00,72.9,45.8,29.71,North,0,0.0,0.0,38,0.00,,,-99.99,VWS V12.07,2013-12-29 15:30:00,
2013-12-29 10:40:00,73.0,46.0,29.71,North,0,0.0,0.0,38,0.00,,,-99.99,VWS V12.07,2013-12-29 15:40:00,
2013-12-29 10:50:00,72.9,45.8,29.71,North,0,0.0,0.0,38,0.00,,,-99.99,VWS V12.07,2013-12-29 15:50:00,
2013-12-29 11:00:00,72.9,45.8,29.71,North,0,0.0,0.0,38,0.00,,,-99.99,VWS V12.07,2013-12-29 16:00:00,
2013-12-29 11:10:00,72.9,45.1,29.68,North,0,0.0,0.0,37,0.00,,,-99.99,VWS V12.07,2013-12-29 16:10:00,
2013-12-29 11:20:00,73.0,46.0,29.68,North,0,0.0,0.0,38,0.00,,,-99.99,VWS V12.07,2013-12-29 16:20:00,
2013-12-29 11:30:00,73.8,45.9,29.68,North,0,0.0,0.0,37,0.00,,,-99.99,VWS V12.07,2013-12-29 16:30:00,
2013-12-29 11:40:00,74.3,46.4,29.68,North,0,0.0,0.0,37,0.00,,,-99.99,VWS V12.07,2013-12-29 16:40:00,
2013-12-29 11:50:00,74.3,46.4,29.68,North,0,0.0,0.0,37,0.00,,,-99.99,VWS V12.07,2013-12-29 16:50:00,
2013-12-29 12:00:00,74.8,46.8,29.68,North,0,0.0,0.0,37,0.00,,,-99.99,VWS V12.07,2013-12-29 17:00:00,
2013-12-29 12:10:00,74.8,46.8,29.68,North,0,0.0,0.0,37,0.00,,,-99.99,VWS V12.07,2013-12-29 17:10:00,
2013-12-29 12:20:00,74.8,46.8,29.68,North,0,0.0,0.0,37,0.00,,,-99.99,VWS V12.07,2013-12-29 17:20:00,
2013-12-29 12:30:00,74.3,44.9,29.65,North,0,0.0,0.0,35,0.00,,,-99.99,VWS V12.07,2013-12-29 17:30:00,
2013-12-29 12:40:00,74.1,44.8,29.65,North,0,0.0,0.0,35,0.00,,,-99.99,VWS V12.07,2013-12-29 17:40:00,
2013-12-29 12:50:00,74.3,44.9,29.65,North,0,0.0,0.0,35,0.00,,,-99.99,VWS V12.07,2013-12-29 17:50:00,
2013-12-29 13:00:00,74.3,44.9,29.65,North,0,0.0,0.0,35,0.00,,,-99.99,VWS V12.07,2013-12-29 18:00:00,
2013-12-29 13:10:00,74.8,46.1,29.62,North,0,0.0,0.0,36,0.00,,,-99.99,VWS V12.07,2013-12-29 18:10:00,
2013-12-29 13:20:00,74.5,45.8,29.62,North,0,0.0,0.0,36,0.00,,,-99.99,VWS V12.07,2013-12-29 18:20:00,
2013-12-29 13:30:00,74.5,45.8,29.62,North,0,0.0,0.0,36,0.00,,,-99.99,VWS V12.07,2013-12-29 18:30:00,
2013-12-29 13:40:00,74.3,45.7,29.59,North,0,0.0,0.0,36,0.00,,,-99.99,VWS V12.07,2013-12-29 18:40:00,
2013-12-29 13:50:00,74.3,45.7,29.59,North,0,0.0,0.0,36,0.00,,,-99.99,VWS V12.07,2013-12-29 18:50:00,
2013-12-29 14:00:00,72.7,43.5,29.59,North,0,0.0,0.0,35,0.00,,,-99.99,VWS V12.07,2013-12-29 19:00:00,
2013-12-29 14:10:00,73.0,43.8,29.59,North,0,0.0,0.0,35,0.00,,,-99.99,VWS V12.07,2013-12-29 19:10:00,
2013-12-29 14:20:00,73.2,44.7,29.59,North,0,0.0,0.0,36,0.00,,,-99.99,VWS V12.07,2013-12-29 19:20:00,
2013-12-29 14:30:00,73.2,44.7,29.59,North,0,0.0,0.0,36,0.00,,,-99.99,VWS V12.07,2013-12-29 19:30:00,
2013-12-29 14:40:00,74.1,46.2,29.59,North,0,0.0,0.0,37,0.00,,,-99.99,VWS V12.07,2013-12-29 19:40:00,
2013-12-29 14:50:00,74.1,46.2,29.59,North,0,0.0,0.0,37,0.00,,,-99.99,VWS V12.07,2013-12-29 19:50:00,
2013-12-29 15:00:00,74.1,46.2,29.59,North,0,0.0,0.0,37,0.00,,,-99.99,VWS V12.07,2013-12-29 20:00:00,
2013-12-29 15:10:00,73.6,46.4,29.59,North,0,0.0,0.0,38,0.00,,,-99.99,VWS V12.07,2013-12-29 20:10:00,
2013-12-29 15:20:00,73.4,47.0,29.59,North,0,0.0,0.0,39,0.00,,,-99.99,VWS V12.07,2013-12-29 20:20:00,
2013-12-29 15:30:00,73.2,46.8,29.59,North,0,0.0,0.0,39,0.00,,,-99.99,VWS V12.07,2013-12-29 20:30:00,
2013-12-29 15:40:00,73.2,46.8,29.59,North,0,0.0,0.0,39,0.00,,,-99.99,VWS V12.07,2013-12-29 20:40:00,
2013-12-29 15:50:00,73.2,46.8,29.59,North,0,0.0,0.0,39,0.00,,,-99.99,VWS V12.07,2013-12-29 20:50:00,
2013-12-29 16:00:00,72.1,43.0,29.62,North,0,0.0,0.0,35,0.00,,,-99.99,VWS V12.07,2013-12-29 21:00:00,
2013-12-29 16:30:00,71.6,44.0,29.62,North,0,0.0,0.0,37,0.00,,,-99.99,VWS V12.07,2013-12-29 21:30:00,
2013-12-29 16:40:00,71.6,44.7,29.62,North,0,0.0,0.0,38,0.00,,,-99.99,VWS V12.07,2013-12-29 21:40:00,
2013-12-29 16:50:00,71.6,45.4,29.62,North,0,0.0,0.0,39,0.00,,,-99.99,VWS V12.07,2013-12-29 21:50:00,
2013-12-29 17:00:00,71.6,45.4,29.59,North,0,0.0,0.0,39,0.00,,,-99.99,VWS V12.07,2013-12-29 22:00:00,
2013-12-29 17:10:00,71.8,45.5,29.62,North,0,0.0,0.0,39,0.00,,,-99.99,VWS V12.07,2013-12-29 22:10:00,
2013-12-29 17:20:00,71.8,46.2,29.62,North,0,0.0,0.0,40,0.00,,,-99.99,VWS V12.07,2013-12-29 22:20:00,
2013-12-29 17:30:00,72.0,47.0,29.62,North,0,0.0,0.0,41,0.00,,,-99.99,VWS V12.07,2013-12-29 22:30:00,
2013-12-29 19:30:00,64.9,40.7,29.65,North,0,0.0,0.0,41,0.00,,,-99.99,VWS V12.07,2013-12-30 00:30:00,
2013-12-29 19:40:00,64.8,40.5,29.68,North,0,0.0,0.0,41,0.00,,,-99.99,VWS V12.07,2013-12-30 00:40:00,
2013-12-29 19:50:00,64.6,40.4,29.68,North,0,0.0,0.0,41,0.00,,,-99.99,VWS V12.07,2013-12-30 00:50:00,
2013-12-29 20:00:00,64.4,40.8,29.68,North,0,0.0,0.0,42,0.00,,,-99.99,VWS V12.07,2013-12-30 01:00:00,
2013-12-29 20:10:00,64.6,41.0,29.68,North,0,0.0,0.0,42,0.00,,,-99.99,VWS V12.07,2013-12-30 01:10:00,
2013-12-29 20:20:00,64.6,41.0,29.68,North,0,0.0,0.0,42,0.00,,,-99.99,VWS V12.07,2013-12-30 01:20:00,
2013-12-29 20:30:00,64.6,41.0,29.68,North,0,0.0,0.0,42,0.00,,,-99.99,VWS V12.07,2013-12-30 01:30:00,
2013-12-29 20:40:00,64.6,41.0,29.68,North,0,0.0,0.0,42,0.00,,,-99.99,VWS V12.07,2013-12-30 01:40:00,
2013-12-29 20:50:00,64.6,41.0,29.68,North,0,0.0,0.0,42,0.00,,,-99.99,VWS V12.07,2013-12-30 01:50:00,
2013-12-29 21:00:00,64.6,41.0,29.68,North,0,0.0,0.0,42,0.00,,,-99.99,VWS V12.07,2013-12-30 02:00:00,
2013-12-29 21:10:00,64.6,41.0,29.68,North,0,0.0,0.0,42,0.00,,,-99.99,VWS V12.07,2013-12-30 02:10:00,
2013-12-29 21:20:00,64.6,41.0,29.68,North,0,0.0,0.0,42,0.00,,,-99.99,VWS V12.07,2013-12-30 02:20:00,
2013-12-29 21:30:00,64.6,41.0,29.68,North,0,0.0,0.0,42,0.00,,,-99.99,VWS V12.07,2013-12-30 02:30:00,
2013-12-29 21:40:00,64.6,41.0,29.68,North,0,0.0,0.0,42,0.00,,,-99.99,VWS V12.07,2013-12-30 02:40:00,
2013-12-29 21:50:00,64.6,41.0,29.68,North,0,0.0,0.0,42,0.00,,,-99.99,VWS V12.07,2013-12-30 02:50:00,
2013-12-29 22:00:00,64.6,41.0,29.71,North,0,0.0,0.0,42,0.00,,,-99.99,VWS V12.07,2013-12-30 03:00:00,
2013-12-29 22:10:00,64.6,41.0,29.71,North,0,0.0,0.0,42,0.00,,,-99.99,VWS V12.07,2013-12-30 03:10:00,
2013-12-29 22:20:00,64.6,41.0,29.71,North,0,0.0,0.0,42,0.00,,,-99.99,VWS V12.07,2013-12-30 03:20:00,
2013-12-29 22:30:00,64.6,41.0,29.71,North,0,0.0,0.0,42,0.00,,,-99.99,VWS V12.07,2013-12-30 03:30:00,
2013-12-29 22:40:00,63.0,41.3,29.71,North,0,0.0,0.0,45,0.00,,,-99.99,VWS V12.07,2013-12-30 03:40:00,
2013-12-29 22:50:00,63.0,41.3,29.71,North,0,0.0,0.0,45,0.00,,,-99.99,VWS V12.07,2013-12-30 03:50:00,
2013-12-29 23:00:00,63.0,41.3,29.71,North,0,0.0,0.0,45,0.00,,,-99.99,VWS V12.07,2013-12-30 04:00:00,
2013-12-29 23:10:00,62.2,41.2,29.71,North,0,0.0,0.0,46,0.00,,,-99.99,VWS V12.07,2013-12-30 04:10:00,
2013-12-29 23:20:00,62.2,41.2,29.71,North,0,0.0,0.0,46,0.00,,,-99.99,VWS V12.07,2013-12-30 04:20:00,
2013-12-29 23:30:00,61.9,40.9,29.71,North,0,0.0,0.0,46,0.00,,,-99.99,VWS V12.07,2013-12-30 04:30:00,
2013-12-29 23:40:00,61.7,40.7,29.71,North,0,0.0,0.0,46,0.00,,,-99.99,VWS V12.07,2013-12-30 04:40:00,
2013-12-29 23:50:00,61.5,40.6,29.71,North,0,0.0,0.0,46,0.00,,,-99.99,VWS V12.07,2013-12-30 04:50:00,